GW4994 Weather Reports


Display with metric or nautical units.
time (UTC)temp
F
wind
direction
speed
MPH
gust
MPH
rain 1hr
in
rain 24hr
in
rain mn
in
humidity
%
barometer
mb
20260505173010 0 245 11.0 16.0 0.00 0.00 0.00 1012.7
20260505172508 0 260 17.0 23.0 0.00 0.00 0.00 1012.8
20260505172003 0 333 5.0 11.0 0.00 0.00 0.00 1012.6
20260505171459 0 328 13.0 16.0 0.00 0.00 0.00 1012.6
20260505170956 0 260 6.0 13.0 0.00 0.00 0.00 1012.7
20260505170452 0 326 8.0 13.0 0.00 0.00 0.00 1012.8
20260505165948 0 255 7.0 11.0 0.00 0.00 0.00 1012.8
20260505165443 0 298 7.0 10.0 0.00 0.00 0.00 1012.9
20260505164939 0 338 9.0 13.0 0.00 0.00 0.00 1012.9
20260505164436 0 266 5.0 8.0 0.00 0.00 0.00 1012.9
20260505163934 0 306 9.0 15.0 0.00 0.00 0.00 1012.7
20260505163433 0 267 9.0 10.0 0.00 0.00 0.00 1012.7
20260505162931 0 259 7.0 9.0 0.00 0.00 0.00 1012.6
20260505162427 0 265 5.0 10.0 0.00 0.00 0.00 1012.5
20260505161924 0 342 9.0 11.0 0.00 0.00 0.00 1012.8
20260505161420 0 324 7.0 14.0 0.00 0.00 0.00 1012.6
20260505160918 0 306 8.0 11.0 0.00 0.00 0.00 1012.7
20260505160416 0 274 11.0 16.0 0.00 0.00 0.00 1012.8
20260505153355 0 323 5.0 16.0 0.00 0.00 0.00 1012.4
20260505152852 0 319 9.0 16.0 0.00 0.00 0.00 1012.6
20260505152349 0 324 3.0 6.0 0.00 0.00 0.00 1012.5
20260505151849 0 343 9.0 13.0 0.00 0.00 0.00 1012.7
20260505151346 0 291 5.0 8.0 0.00 0.00 0.00 1012.3
20260505150843 0 285 5.0 8.0 0.00 0.00 0.00 1012.4
20260505150341 0 273 6.0 11.0 0.00 0.00 0.00 1012.3
20260505140310 0 256 8.0 11.0 0.00 0.00 0.00 1012.8
20260505130234 0 243 4.0 6.0 0.00 0.00 0.00 1012.8
20260505124724 0 279 2.0 3.0 0.00 0.00 0.00 1012.9
20260505124221 0 247 3.0 5.0 0.00 0.00 0.00 1012.9
20260505123717 0 243 3.0 5.0 0.00 0.00 0.00 1012.9
20260505123214 0 231 3.0 3.0 0.00 0.00 0.00 1012.8
20260505122710 0 236 2.0 2.0 0.00 0.00 0.00 1012.8
20260505122208 0 229 0.0 2.0 0.00 0.00 0.00 1012.6
20260505121704 0 247 1.0 3.0 0.00 0.00 0.00 1012.6
20260505121201 0 257 1.0 2.0 0.00 0.00 0.00 1012.6
20260505120657 0 240 1.0 1.0 0.00 0.00 0.00 1012.8
20260505120153 0 212 1.0 1.0 0.00 0.00 0.00 1012.5
20260505115647 0 211 0.0 1.0 0.00 0.00 0.00 1012.7
20260505115145 0 217 1.0 1.0 0.00 0.00 0.00 1012.8
20260505114642 0 212 2.0 5.0 0.00 0.00 0.00 1012.6
20260505114138 0 219 2.0 2.0 0.00 0.00 0.00 1012.4
20260505113634 0 226 0.0 1.0 0.00 0.00 0.00 1012.0
20260505113131 0 226 0.0 1.0 0.00 0.00 0.00 1011.4
20260505112627 0 225 0.0 1.0 0.00 0.00 0.00 1011.3
20260505112126 0 249 0.0 1.0 0.00 0.00 0.00 1011.2
20260505111625 0 254 1.0 2.0 0.00 0.00 0.00 1011.1
20260505111121 0 231 1.0 1.0 0.00 0.00 0.00 1010.7
20260505110618 0 74 1.0 1.0 0.00 0.00 0.00 1010.6
20260505110115 0 57 1.0 1.0 0.00 0.00 0.00 1010.8
20260505102050 0 235 1.0 1.0 0.00 0.00 0.00 1010.9
20260505101549 0 304 2.0 3.0 0.00 0.00 0.00 1011.1
20260505101045 0 263 1.0 2.0 0.00 0.00 0.00 1011.2
20260505100542 0 308 3.0 3.0 0.00 0.00 0.00 1010.8
20260505100039 0 298 4.0 5.0 0.00 0.00 0.00 1010.7
20260505095535 0 309 3.0 3.0 0.00 0.00 0.00 1010.8
20260505095031 0 263 2.0 3.0 0.00 0.00 0.00 1010.7
20260505094528 0 311 2.0 5.0 0.00 0.00 0.00 1010.2
20260505094024 0 314 5.0 6.0 0.00 0.00 0.00 1010.3
20260505093521 0 325 3.0 5.0 0.00 0.00 0.00 1010.3
20260505093018 0 337 3.0 6.0 0.00 0.00 0.00 1010.3
20260505092515 0 312 4.0 5.0 0.00 0.00 0.00 1010.2
20260505092014 0 328 3.0 8.0 0.00 0.00 0.00 1010.4
20260505091510 0 345 6.0 11.0 0.00 0.00 0.00 1010.2
20260505091009 0 307 6.0 6.0 0.00 0.00 0.00 1010.2
20260505090506 0 326 4.0 8.0 0.00 0.00 0.00 1010.4
20260505090004 0 314 5.0 7.0 0.00 0.00 0.00 1010.1
20260505085501 0 348 3.0 6.0 0.00 0.00 0.00 1010.4
20260505084959 0 319 4.0 6.0 0.00 0.00 0.00 1010.6
20260505084457 0 306 2.0 5.0 0.00 0.00 0.00 1010.5
20260505083955 0 267 2.0 6.0 0.00 0.00 0.00 1010.6
20260505083452 0 330 2.0 5.0 0.00 0.00 0.00 1010.1
20260505082948 0 334 7.0 8.0 0.00 0.00 0.00 1010.0
20260505082444 0 336 5.0 7.0 0.00 0.00 0.00 1009.5
20260505081941 0 357 9.0 10.0 0.00 0.00 0.00 1009.3
20260505081438 0 357 8.0 9.0 0.00 0.00 0.00 1009.2
20260505080934 0 331 4.0 9.0 0.00 0.00 0.00 1009.2
20260505080431 0 0 7.0 18.0 0.00 0.00 0.00 1009.1
20260505075926 0 323 9.0 13.0 0.00 0.00 0.00 1009.0
20260505075423 0 358 4.0 10.0 0.00 0.00 0.00 1008.7
20260505074921 0 335 5.0 6.0 0.00 0.00 0.00 1008.7
20260505074418 0 1 8.0 14.0 0.00 0.00 0.00 1008.6
20260505073915 0 354 2.0 5.0 0.00 0.00 0.00 1008.7
20260505073413 0 328 5.0 14.0 0.00 0.00 0.00 1008.7
20260505072910 0 344 5.0 11.0 0.00 0.00 0.00 1008.3
20260505072405 0 21 9.0 11.0 0.00 0.00 0.00 1008.2
20260505071902 0 347 4.0 6.0 0.00 0.00 0.00 1007.9
20260505071358 0 314 4.0 10.0 0.00 0.00 0.00 1007.5
20260505070856 0 358 8.0 13.0 0.00 0.00 0.00 1007.5
20260505070352 0 318 7.0 10.0 0.00 0.00 0.00 1007.8
20260505065848 0 318 7.0 10.0 0.00 0.00 0.00 1007.7
20260505065345 0 11 5.0 10.0 0.00 0.00 0.00 1007.9
20260505064842 0 350 5.0 6.0 0.00 0.00 0.00 1007.8
20260505064339 0 17 4.0 11.0 0.00 0.00 0.00 1007.9
20260505063837 0 347 7.0 11.0 0.00 0.00 0.00 1007.6
20260505063333 0 341 9.0 11.0 0.00 0.00 0.00 1007.5
20260505062830 0 344 10.0 13.0 0.00 0.00 0.00 1007.2
20260505062327 0 339 7.0 11.0 0.00 0.00 0.00 1007.2
20260505061824 0 332 9.0 11.0 0.00 0.00 0.00 1007.2
20260505061322 0 330 5.0 8.0 0.00 0.00 0.00 1007.2
20260505060819 0 293 4.0 6.0 0.00 0.00 0.00 1007.4
20260505060316 0 315 3.0 5.0 0.00 0.00 0.00 1007.2
20260505055812 0 349 4.0 9.0 0.00 0.00 0.00 1006.9
20260505055308 0 289 5.0 7.0 0.00 0.00 0.00 1006.7
20260505054806 0 348 5.0 8.0 0.00 0.00 0.00 1006.7
20260505054303 0 324 5.0 9.0 0.00 0.00 0.00 1007.0
20260505053801 0 349 3.0 7.0 0.00 0.00 0.00 1007.0
20260505053257 0 282 2.0 5.0 0.00 0.00 0.00 1006.8
20260505052754 0 330 5.0 13.0 0.00 0.00 0.00 1006.8
20260505052251 0 341 2.0 3.0 0.00 0.00 0.00 1006.9
20260505051748 0 319 5.0 6.0 0.00 0.00 0.00 1006.7
20260505051246 0 293 3.0 5.0 0.00 0.00 0.00 1006.8
20260505050744 0 326 3.0 8.0 0.00 0.00 0.00 1006.8
20260505050242 0 304 3.0 5.0 0.00 0.00 0.00 1006.5
20260505041712 0 341 3.0 8.0 0.00 0.00 0.00 1005.7
20260505041209 0 252 2.0 3.0 0.00 0.00 0.00 1005.9
20260505040706 0 227 0.0 3.0 0.00 0.00 0.00 1005.6
20260505040203 0 303 1.0 3.0 0.00 0.00 0.00 1005.6
20260505035700 0 16 1.0 2.0 0.00 0.00 0.00 1005.8
20260505035156 0 302 4.0 6.0 0.00 0.00 0.00 1005.8
20260505034652 0 359 3.0 6.0 0.00 0.00 0.00 1005.9
20260505034150 0 305 3.0 5.0 0.00 0.00 0.00 1005.7
20260505033646 0 303 3.0 3.0 0.00 0.00 0.00 1005.7
20260505033145 0 308 4.0 7.0 0.00 0.00 0.00 1005.7
20260505032642 0 260 3.0 5.0 0.00 0.00 0.00 1005.7
20260505032133 0 264 7.0 9.0 0.00 0.00 0.00 1005.8
20260505031630 0 319 5.0 8.0 0.00 0.00 0.00 1005.9
20260505031125 0 278 3.0 5.0 0.00 0.00 0.00 1005.8
20260505030623 0 245 4.0 8.0 0.00 0.00 0.00 1005.6
20260505030119 0 259 4.0 7.0 0.00 0.00 0.00 1005.4
20260505025614 0 291 3.0 5.0 0.00 0.00 0.00 1005.4
20260505025114 0 320 5.0 9.0 0.00 0.00 0.00 1005.4
20260505024610 0 303 6.0 10.0 0.00 0.00 0.00 1005.3
20260505024108 0 256 3.0 3.0 0.00 0.00 0.00 1005.3
20260505023605 0 237 1.0 2.0 0.00 0.00 0.00 1005.0
20260505023102 0 226 0.0 1.0 0.00 0.00 0.00 1004.9
20260505022600 0 257 2.0 2.0 0.00 0.00 0.00 1004.7
20260505022056 0 206 0.0 1.0 0.00 0.00 0.00 1004.7
20260505021553 0 231 1.0 2.0 0.00 0.00 0.00 1004.3
20260505021050 0 231 1.0 2.0 0.00 0.00 0.00 1004.2
20260505020549 0 306 3.0 6.0 0.00 0.00 0.00 1003.9
20260505020047 0 317 4.0 7.0 0.00 0.00 0.00 1003.8
20260505015544 0 304 6.0 10.0 0.00 0.00 0.00 1003.9
20260505015041 0 339 3.0 5.0 0.00 0.00 0.00 1003.5
20260505014537 0 323 7.0 9.0 0.00 0.00 0.00 1003.6
20260505014035 0 295 5.0 7.0 0.00 0.00 0.00 1003.5
20260505013531 0 299 9.0 13.0 0.00 0.00 0.00 1003.4
20260505013029 0 301 7.0 10.0 0.00 0.00 0.00 1003.1
20260505012527 0 280 5.0 11.0 0.00 0.00 0.00 1003.0
20260505012024 0 320 8.0 16.0 0.00 0.00 0.00 1002.7
20260505011519 0 345 12.0 15.0 0.00 0.00 0.00 1002.6
20260505011017 0 324 5.0 9.0 0.00 0.00 0.00 1002.8
20260505010512 0 13 10.0 15.0 0.00 0.00 0.00 1002.9
20260505010009 0 317 12.0 17.0 0.00 0.00 0.00 1002.7
20260505005505 0 292 11.0 14.0 0.00 0.00 0.00 1002.4
20260505005004 0 313 5.0 7.0 0.00 0.00 0.00 1002.1
20260505004500 0 304 5.0 8.0 0.00 0.00 0.00 1002.0
20260505003956 0 325 6.0 9.0 0.00 0.00 0.00 1002.0
20260505003453 0 328 11.0 17.0 0.00 0.00 0.00 1001.7
20260505002950 0 328 14.0 18.0 0.00 0.00 0.00 1001.4
20260505002446 0 282 7.0 9.0 0.00 0.00 0.00 1001.3
20260505001944 0 241 6.0 8.0 0.00 0.00 0.00 1001.1
20260505001442 0 321 14.0 20.0 0.00 0.00 0.00 1001.1
20260505000938 0 330 7.0 15.0 0.00 0.00 0.00 1001.1
20260505000437 0 335 11.0 22.0 0.00 0.00 0.00 1001.0
20260504235933 0 304 7.0 13.0 0.00 0.00 0.00 1000.9
20260504235430 0 272 5.0 20.0 0.00 0.00 0.00 1001.0
20260504234926 0 313 11.0 16.0 0.00 0.00 0.00 1000.9
20260504234424 0 337 13.0 18.0 0.00 0.00 0.00 1000.8
20260504233920 0 330 11.0 15.0 0.00 0.00 0.00 1000.6
20260504233416 0 292 12.0 18.0 0.00 0.00 0.00 1000.3
20260504232913 0 295 7.0 13.0 0.00 0.00 0.00 1000.5
20260504232410 0 285 10.0 11.0 0.00 0.00 0.00 1000.4
20260504231908 0 278 5.0 10.0 0.00 0.00 0.00 1000.2
20260504231403 0 299 9.0 13.0 0.00 0.00 0.00 1000.2
20260504230900 0 290 6.0 13.0 0.00 0.00 0.00 1000.3
20260504230357 0 346 9.0 17.0 0.00 0.00 0.00 1000.1
20260504225856 0 281 6.0 15.0 0.00 0.00 0.00 1000.0
20260504225352 0 291 6.0 16.0 0.00 0.00 0.00 1000.1
20260504224850 0 315 9.0 13.0 0.00 0.00 0.00 1000.0
20260504224346 0 285 5.0 11.0 0.00 0.00 0.00 1000.0
20260504223843 0 280 6.0 13.0 0.00 0.00 0.00 1000.0
20260504223338 0 331 5.0 17.0 0.00 0.00 0.00 1000.2
20260504222835 0 270 14.0 17.0 0.00 0.00 0.00 999.8
20260504222332 0 269 8.0 15.0 0.00 0.00 0.00 999.9
20260504221831 0 275 7.0 11.0 0.00 0.00 0.00 1000.0
20260504221327 0 250 8.0 10.0 0.00 0.00 0.00 1000.0
20260504220824 0 247 11.0 14.0 0.00 0.00 0.00 1000.1
20260504220321 0 263 8.0 16.0 0.00 0.00 0.00 999.9
20260504215818 0 243 12.0 21.0 0.00 0.00 0.00 1000.0
20260504215314 0 247 13.0 21.0 0.00 0.00 0.00 1000.0
20260504214810 0 254 14.0 20.0 0.00 0.00 0.00 1000.1
20260504214308 0 254 11.0 14.0 0.00 0.00 0.00 1000.3
20260504213804 0 259 10.0 13.0 0.00 0.00 0.00 999.8
20260504213300 0 247 7.0 11.0 0.00 0.00 0.00 1000.0
20260504212758 0 243 7.0 22.0 0.00 0.00 0.00 1000.2
20260504212254 0 277 12.0 20.0 0.00 0.00 0.00 1000.1
20260504211752 0 258 10.0 18.0 0.00 0.00 0.00 1000.2
20260504211247 0 256 6.0 16.0 0.00 0.00 0.00 1000.3
20260504210745 0 255 13.0 20.0 0.00 0.00 0.00 1000.3
20260504210242 0 254 10.0 17.0 0.00 0.00 0.00 1000.3
20260504205739 0 257 12.0 23.0 0.00 0.00 0.00 1000.4
20260504205237 0 289 17.0 22.0 0.00 0.00 0.00 1000.4
20260504204735 0 236 15.0 17.0 0.00 0.00 0.00 1000.5
20260504204233 0 254 10.0 17.0 0.00 0.00 0.00 1000.5
20260504203732 0 257 10.0 16.0 0.00 0.00 0.00 1000.9
20260504203229 0 262 12.0 16.0 0.00 0.00 0.00 1000.7
20260504202723 0 217 17.0 22.0 0.00 0.00 0.00 1000.7
20260504202221 0 251 14.0 18.0 0.00 0.00 0.00 1000.9
20260504201718 0 244 11.0 16.0 0.00 0.00 0.00 1001.0
20260504201215 0 248 10.0 16.0 0.00 0.00 0.00 1000.9
20260504200713 0 209 9.0 16.0 0.00 0.00 0.00 1001.3
20260504200208 0 256 9.0 16.0 0.00 0.00 0.00 1001.0
20260504195705 0 227 11.0 17.0 0.00 0.00 0.00 1001.2
20260504195201 0 266 14.0 20.0 0.00 0.00 0.00 1001.2
20260504194658 0 272 14.0 24.0 0.00 0.00 0.00 1001.2
20260504194154 0 249 14.0 25.0 0.00 0.00 0.00 1001.3
20260504193651 0 225 17.0 22.0 0.00 0.00 0.00 1001.3
20260504193149 0 270 10.0 20.0 0.00 0.00 0.00 1001.2
20260504192647 0 269 7.0 20.0 0.00 0.00 0.00 1001.5
20260504192144 0 263 7.0 21.0 0.00 0.00 0.00 1001.5
20260504191643 0 235 10.0 16.0 0.00 0.00 0.00 1001.4
20260504191138 0 253 14.0 20.0 0.00 0.00 0.00 1001.4
20260504190634 0 269 12.0 18.0 0.00 0.00 0.00 1001.6
20260504190131 0 230 12.0 21.0 0.00 0.00 0.00 1001.3
20260504185627 0 267 12.0 20.0 0.00 0.00 0.00 1001.5
20260504185124 0 255 17.0 22.0 0.00 0.00 0.00 1001.7
20260504184620 0 239 10.0 17.0 0.00 0.00 0.00 1001.7
20260504184115 0 251 15.0 21.0 0.00 0.00 0.00 1001.7
20260504183612 0 246 12.0 16.0 0.00 0.00 0.00 1001.7
20260504183110 0 244 7.0 16.0 0.00 0.00 0.00 1001.7
20260504182607 0 259 11.0 15.0 0.00 0.00 0.00 1002.0
20260504182105 0 264 11.0 23.0 0.00 0.00 0.00 1001.7
20260504181601 0 239 7.0 15.0 0.00 0.00 0.00 1001.8
20260504181059 0 247 11.0 14.0 0.00 0.00 0.00 1001.9
20260504180558 0 247 11.0 16.0 0.00 0.00 0.00 1001.6
20260504180057 0 215 15.0 21.0 0.00 0.00 0.00 1001.9
20260504175554 0 233 14.0 24.0 0.00 0.00 0.00 1001.9
20260504175050 0 198 11.0 18.0 0.00 0.00 0.00 1002.2
20260504174548 0 247 10.0 20.0 0.00 0.00 0.00 1002.2
20260504174045 0 263 13.0 20.0 0.00 0.00 0.00 1002.2
20260504173542 0 202 15.0 17.0 0.00 0.00 0.00 1002.2